Location: Hollin Hills
(38.7573°N, 77.0661°W)
Time: 03:24:28
(UTC+00:00)

Envisat - Visible Passes

Search period start: 15 April 2026 00:00
Search period end: 25 April 2026 00:00
Orbit: 761 x 762 km, 98.4° (Epoch: 14 April)

Date Brightness Start Highest point End Pass type
(mag) Time Alt. Az. Time Alt. Az. Time Alt. Az.
15 Apr 5.6 06:27:12 10° ENE 06:28:31 13° ENE 06:28:31 13° ENE visible
15 Apr 3.0 08:03:56 10° N 08:08:38 63° NW 08:08:38 63° NW visible
16 Apr 3.7 07:26:11 10° NNE 07:30:29 50° ENE 07:30:29 50° ENE visible
16 Apr 4.6 09:06:22 10° NNW 09:09:36 17° WNW 09:10:37 16° WNW visible
17 Apr 5.0 06:49:10 10° NE 06:52:20 22° E 06:52:20 22° E visible
17 Apr 3.6 08:27:30 10° N 08:32:09 38° WNW 08:32:28 37° WNW visible
18 Apr 2.9 07:49:24 10° NNE 07:54:18 83° N 07:54:18 83° N visible
18 Apr 5.1 09:31:49 10° NW 09:32:36 10° WNW 09:33:22 10° WNW visible
19 Apr 4.1 07:11:53 10° NNE 07:16:08 38° E 07:16:08 38° E visible
19 Apr 4.2 08:51:20 10° NNW 08:55:17 23° WNW 08:56:16 22° W visible
20 Apr 5.3 06:35:20 10° NE 06:37:59 16° E 06:37:59 16° E visible
20 Apr 3.1 08:12:49 10° N 08:17:44 52° WNW 08:18:07 51° W visible
21 Apr 3.1 07:34:56 10° NNE 07:39:57 67° E 07:39:57 67° E visible
21 Apr 4.8 09:15:40 10° NNW 09:18:19 14° WNW 09:20:04 12° W visible
22 Apr 4.6 06:57:41 10° NE 07:01:47 28° E 07:01:47 28° E visible
22 Apr 3.9 08:36:29 10° N 08:40:55 31° WNW 08:41:55 29° W visible
23 Apr 5.6 06:22:08 10° ENE 06:23:37 12° E 06:23:37 12° E visible
23 Apr 2.8 07:58:13 10° N 08:03:17 73° WNW 08:03:45 67° WSW visible
24 Apr 3.6 07:20:34 10° NNE 07:25:28 48° E 07:25:35 48° ESE visible
24 Apr 4.5 09:00:27 10° NNW 09:03:59 19° WNW 09:05:43 17° W visible
